THOR ABLESTAR DEB, 558

Orbit data source: Space-Track

THOR ABLESTAR DEB, 558 is space debris in LEO originally from a launch on Thu, 29 Jun 1961 UTC launched from the Air Force Eastern Test Range (AFETR). Debris objects in space refer to the collection of defunct objects orbiting the Earth. Examples of debris include non-operational satellites, rocket bodies, and fragments generated from explosions, collisions, or faulty payload assembly.

Loading next visibility...
Identifier
558, 1961-015GQ
Orbit
LEO
Country
Flag of USUS
Related business
Manufacturer
Unknown
Mission
Spacecraft
Bus & Motor
Unknown
Mass
Unknown
Launch date (UTC)
1961-06-29 (65 years ago)
Launch vehicle
Unknown
Launch site
Air Force Eastern Test Range (AFETR)
Object type
Payload
Rocket body
Debris
Shape & HBR
Unknown shape, 0.2 m
Radar Cross Section
Small (<0.1 m²)

Expand to show TLE details & history
Last TLE update: 11 hours ago

TLE from 11 hours ago
0 THOR ABLESTAR DEB
1 00558U 61015GQ  26033.58619071  .00000123  00000-0  46673-3 0  9997
2 00558  65.6983  84.7385 0468191 154.2025 358.6516 12.86492240 32243
Epoch: 2026-02-02T14:04Z
TLE epoch observation values (Epoch: 2026-02-02T14:04:06.877Z)
Latitude
24.73679°
Longitude
-91.01303°
Altitude
957.344 km
Speed
7.546 km/s
True Right ascension
16h 51m 10s
True Declination
24° 36' 36"
Sunlit
Object was in daylight at epoch
Visualization orbit readout
Latitude
Unknown
Longitude
Unknown
Altitude
Unknown
Speed
Unknown
Apparent Right ascension
Unknown
Apparent Declination
Unknown
Sunlit
N/A
Visualization observer readout
Local Sidereal Time
02:44:23
Azimuth
Unknown
Elevation
Unknown
Doppler factor
Unknown
Orbital elements
Apogee altitude
1,674.212 km
Perigee altitude
953.927 km
Semi-major axis
7,692.206 km
Eccentricity
0.04682
Inclination
65.6983°
RAAN
84.7385°
Arg. of periapsis
154.2025°
True anomaly
358.51753°
Mean anomaly
358.6516°
Eccentric anomaly
358.58538°
Mean motion
3.21712 °/min
Orbital period
111.9 mins
BSTAR
0.00046673
Loading maneuver chart data...
Computing Atmospheric mass density...

Documentation

Showing up to 5 results
|